Tracking 19717 objects as of 24-Jun-2019
HD Live streaming from Space Station
objects crossing your sky now

FENGYUN 1C DEB

Track FENGYUN 1C DEB now!
10-day predictions


NORAD ID: 31624
Int'l Code: 1999-025CAE
Perigee: 720.9 km
Apogee: 802.9 km
Inclination: 99.7 °
Period: 99.9 minutes
Semi major axis: 7132 km
RCS: 0.0067 m2 (small)
Launch date: May 10, 1999
Source: People's Republic of China (PRC)
Launch site: Taiyaun Space Center, China (TSC)

Note: This is SATELLITE DEBRIS
aabbcc
Your satellite tracking list
Your tracking list is empty




NASA's NSSDC Master Catalog

Two Line Element Set (TLE):
1 31624U 99025CAE 19172.54637642  .00000613  00000-0  20361-3 0  9993
2 31624  99.6820  19.9307 0057450  18.0268  10.1959 14.41139817631551
Source of the keplerian elements: AFSPC